Вернуться в каталог

COSMOS 1595

GLONASS

АктивенНавигацияMEO
NORAD 15261·PAYLOAD·🇷🇺 Russia

Запущен Sep 4, 1984 с Baikonur Cosmodrome

Loading…

Ближайшие Пролёты (ближайшие 24 часа)

TLE

УстаревающийSource: Space-Track

Эпоха: Aug 29, 2026, 21:14 UTC

1 15261U 84095C   26241.88484604  .00000029  00000-0  00000+0 0  9998
2 15261  64.8575  68.6779 0047913 217.3670 320.4342  2.13102090301094

Отслеживайте COSMOS 1595 в реальном времени с AllMySat

Download on the App Store